GW3497 Weather Reports


time (UTC)temp
C
wind
direction
speed
KPH
gust
KPH
rain 1hr
cm
rain 24hr
cm
rain mn
cm
humidity
%
barometer
mb
20260901143327 22 258 9.7 19.3 0.00 0.00 0.00 50 1019.5
20260901142829 23 275 6.4 20.9 0.00 0.00 0.00 49 1019.5
20260901142326 23 231 12.9 20.9 0.00 0.00 0.00 48 1019.6
20260901141832 24 266 9.7 17.7 0.00 0.00 0.00 52 1019.5
20260901141656 23 252 9.7 16.1 0.00 0.00 0.00 49 1019.6
20260901140842 23 224 8.0 19.3 0.00 0.00 0.00 52 1019.6
20260901140327 23 226 4.8 19.3 0.00 0.00 0.00 53 1019.7
20260901140221 22 257 3.2 11.3 0.00 0.00 0.00 53 1019.6
20260901135324 22 233 9.7 17.7 0.00 0.00 0.00 53 1019.7
20260901134824 22 238 11.3 19.3 0.00 0.00 0.00 51 1019.6
20260901134322 22 237 11.3 19.3 0.00 0.00 0.00 50 1019.7
20260901134151 22 248 14.5 19.3 0.00 0.00 0.00 52 1019.6
20260901133317 22 223 6.4 17.7 0.00 0.00 0.00 51 1019.8
20260901132812 22 250 9.7 20.9 0.00 0.00 0.00 50 1019.8
20260901132311 22 245 9.7 20.9 0.00 0.00 0.00 53 1019.8
20260901132135 22 248 14.5 25.7 0.00 0.00 0.00 53 1019.8
20260901131309 22 231 8.0 25.7 0.00 0.00 0.00 53 1019.8
20260901130807 22 240 8.0 16.1 0.00 0.00 0.00 53 1019.7
20260901130452 21 234 14.5 19.3 0.00 0.00 0.00 53 1019.9
20260901130422 21 272 9.7 19.3 0.00 0.00 0.00 56 1019.8
20260901125308 22 247 12.9 17.7 0.00 0.00 0.00 53 1020.0
20260901124922 22 214 6.4 16.1 0.00 0.00 0.00 53 1019.9
20260901124853 22 288 9.7 16.1 0.00 0.00 0.00 52 1019.9
20260901123802 22 293 8.0 16.1 0.00 0.00 0.00 54 1020.0
20260901123302 22 293 8.0 14.5 0.00 0.00 0.00 54 1019.9
20260901122803 21 228 8.0 14.5 0.00 0.00 0.00 55 1019.9
20260901122306 21 310 6.4 19.3 0.00 0.00 0.00 55 1020.0
20260901122128 21 303 4.8 19.3 0.00 0.00 0.00 56 1020.1
20260901121302 21 259 3.2 20.9 0.00 0.00 0.00 55 1020.1
20260901120811 22 271 11.3 20.9 0.00 0.00 0.00 54 1020.2
20260901120307 21 262 6.4 19.3 0.00 0.00 0.00 55 1020.2
20260901115807 21 282 4.8 17.7 0.00 0.00 0.00 55 1020.2
20260901115306 21 268 6.4 20.9 0.00 0.00 0.00 56 1020.2
20260901114802 21 288 8.0 20.9 0.00 0.00 0.00 55 1020.2
20260901114608 21 240 6.4 17.7 0.00 0.00 0.00 57 1020.2
20260901113759 21 268 9.7 19.3 0.00 0.00 0.00 57 1020.3
20260901113256 21 252 9.7 19.3 0.00 0.00 0.00 57 1020.3
20260901112800 20 247 3.2 19.3 0.00 0.00 0.00 58 1020.3
20260901112257 20 238 11.3 19.3 0.00 0.00 0.00 58 1020.4
20260901111755 20 254 6.4 19.3 0.00 0.00 0.00 58 1020.3
20260901111256 20 269 6.4 17.7 0.00 0.00 0.00 58 1020.3
20260901110753 20 228 8.0 16.1 0.00 0.00 0.00 58 1020.3
20260901110305 20 258 9.7 16.1 0.00 0.00 0.00 60 1020.4
20260901105751 20 251 8.0 17.7 0.00 0.00 0.00 60 1020.4
20260901105251 19 257 8.0 19.3 0.00 0.00 0.00 61 1020.3
20260901104752 19 228 8.0 19.3 0.00 0.00 0.00 60 1020.3
20260901104252 19 251 8.0 16.1 0.00 0.00 0.00 61 1020.3
20260901104107 19 248 6.4 17.7 0.00 0.00 0.00 63 1020.4
20260901103254 19 282 11.3 17.7 0.00 0.00 0.00 61 1020.5
20260901102751 19 261 9.7 20.9 0.00 0.00 0.00 62 1020.5
20260901102414 18 241 6.4 17.7 0.00 0.00 0.00 65 1020.6
20260901102351 19 298 8.0 20.9 0.00 0.00 0.00 63 1020.5
20260901101249 18 238 9.7 17.7 0.00 0.00 0.00 64 1020.5
20260901100745 18 302 8.0 14.5 0.00 0.00 0.00 66 1020.6
20260901100247 18 283 6.4 14.5 0.00 0.00 0.00 64 1020.7
20260901100130 18 255 8.0 11.3 0.00 0.00 0.00 66 1020.7
20260901095537 18 0.0 0.0 0.00 0.00 0.00 65 1020.7
20260901094745 18 0.0 0.0 0.00 0.00 0.00 65 1020.8
20260901094243 18 0.0 0.0 0.00 0.00 0.00 65 1020.8
20260901093742 18 0.0 0.0 0.00 0.00 0.00 67 1020.9
20260901093539 17 0.0 0.0 0.00 0.00 0.00 68 1020.8
20260901092741 17 0.0 0.0 0.00 0.00 0.00 67 1021.0
20260901092538 17 0.0 0.0 0.00 0.00 0.00 68 1020.9
20260901092055 17 0.0 0.0 0.00 0.00 0.00 68 1020.9
20260901091242 17 0.0 0.0 0.00 0.00 0.00 69 1020.9
20260901090741 17 0.0 0.0 0.00 0.00 0.00 71 1020.9
20260901090239 17 0.0 0.0 0.00 0.00 0.00 70 1020.8
20260901085741 17 0.0 0.0 0.00 0.00 0.00 71 1020.9
20260901085532 16 0.0 0.0 0.00 0.00 0.00 74 1020.8
20260901084740 16 0.0 0.0 0.00 0.00 0.00 73 1020.7
20260901084242 16 0.0 0.0 0.00 0.00 0.00 73 1020.7
20260901083740 16 0.0 0.0 0.00 0.00 0.00 74 1020.6
20260901083241 16 0.0 0.0 0.00 0.00 0.00 75 1020.6
20260901082739 16 0.0 0.0 0.00 0.00 0.00 76 1020.7
20260901082535 16 0.0 0.0 0.00 0.00 0.00 78 1020.6
20260901081741 16 0.0 0.0 0.00 0.00 0.00 78 1020.6
20260901081538 15 0.0 0.0 0.00 0.00 0.00 79 1020.6
20260901080742 15 0.0 0.0 0.00 0.00 0.00 79 1020.6
20260901080536 15 0.0 0.0 0.00 0.00 0.00 80 1020.5
20260901075739 15 0.0 0.0 0.00 0.00 0.00 82 1020.4
20260901075240 15 0.0 0.0 0.00 0.00 0.00 82 1020.4
20260901074740 15 0.0 0.0 0.00 0.00 0.00 83 1020.3
20260901074242 15 0.0 0.0 0.00 0.00 0.00 84 1020.3
20260901073738 14 0.0 0.0 0.00 0.00 0.00 85 1020.3
20260901073537 14 0.0 0.0 0.00 0.00 0.00 85 1020.4
20260901072739 13 0.0 0.0 0.00 0.00 0.00 86 1020.3
20260901072238 13 0.0 0.0 0.00 0.00 0.00 87 1020.3
20260901071739 13 0.0 0.0 0.00 0.00 0.00 88 1020.2
20260901071242 13 0.0 0.0 0.00 0.00 0.00 88 1020.3
20260901070738 13 0.0 0.0 0.00 0.00 0.00 88 1020.4
20260901070238 12 0.0 0.0 0.00 0.00 0.00 89 1020.2
20260901065739 12 0.0 0.0 0.00 0.00 0.00 89 1020.3
20260901065236 12 0.0 0.0 0.00 0.00 0.00 90 1020.3
20260901065154 11 0.0 0.0 0.00 0.00 0.00 91 1020.2
20260901065150 12 0.0 0.0 0.00 0.00 0.00 91 1020.3
20260901063736 11 0.0 0.0 0.00 0.00 0.00 92 1020.2
20260901063235 11 0.0 0.0 0.00 0.00 0.00 92 1020.2
20260901062734 11 0.0 0.0 0.00 0.00 0.00 92 1020.2
20260901062233 10 0.0 0.0 0.00 0.00 0.00 91 1020.1
20260901062057 10 0.0 0.0 0.00 0.00 0.00 91 1020.1
20260901061233 10 0.0 0.0 0.00 0.00 0.00 90 1020.1
20260901060734 10 0.0 0.0 0.00 0.00 0.00 90 1020.1
20260901060236 10 0.0 0.0 0.00 0.00 0.00 90 1020.0
20260901055733 10 0.0 0.0 0.00 0.00 0.00 90 1020.0
20260901055233 10 0.0 0.0 0.00 0.00 0.00 90 1019.9
20260901054733 10 0.0 0.0 0.00 0.00 0.00 89 1019.9
20260901054231 10 0.0 0.0 0.00 0.00 0.00 90 1019.9
20260901053730 10 0.0 0.0 0.00 0.00 0.00 89 1019.9
20260901053230 10 0.0 0.0 0.00 0.00 0.00 89 1019.9
20260901052730 10 0.0 0.0 0.00 0.00 0.00 89 1019.8
20260901052229 10 0.0 0.0 0.00 0.00 0.00 89 1019.8
20260901051726 10 0.0 0.0 0.00 0.00 0.00 88 1019.8
20260901051226 10 0.0 0.0 0.00 0.00 0.00 88 1019.8
20260901050730 10 0.0 0.0 0.00 0.00 0.00 87 1019.6
20260901050225 10 0.0 0.0 0.00 0.00 0.00 87 1019.6
20260901045726 10 0.0 0.0 0.00 0.00 0.00 87 1019.6
20260901045226 10 0.0 0.0 0.00 0.00 0.00 87 1019.5
20260901044726 10 0.0 0.0 0.00 0.00 0.00 87 1019.5
20260901044226 10 0.0 0.0 0.00 0.00 0.00 87 1019.6
20260901043724 10 0.0 0.0 0.00 0.00 0.00 87 1019.4
20260901043226 10 0.0 0.0 0.00 0.00 0.00 87 1019.5
20260901043125 10 0.0 0.0 0.00 0.00 0.00 87 1019.4
20260901042225 10 0.0 0.0 0.00 0.00 0.00 87 1019.4
20260901041724 10 0.0 0.0 0.00 0.00 0.00 87 1019.4
20260901041529 10 0.0 0.0 0.00 0.00 0.00 87 1019.3
20260901040726 11 0.0 0.0 0.00 0.00 0.00 87 1019.3
20260901040223 11 0.0 0.0 0.00 0.00 0.00 87 1019.3
20260901035723 11 0.0 0.0 0.00 0.00 0.00 87 1019.3
20260901035523 11 0.0 0.0 0.00 0.00 0.00 87 1019.3
20260901034724 11 0.0 0.0 0.00 0.00 0.00 87 1019.4
20260901034223 11 0.0 0.0 0.00 0.00 0.00 87 1019.3
20260901033723 11 0.0 0.0 0.00 0.00 0.00 87 1019.4
20260901033222 11 0.0 0.0 0.00 0.00 0.00 87 1019.4
20260901032722 11 0.0 0.0 0.00 0.00 0.00 88 1019.4
20260901032521 11 285 3.2 3.2 0.00 0.00 0.00 88 1019.3
20260901032041 11 285 3.2 3.2 0.00 0.00 0.00 87 1019.3
20260901031221 11 285 1.6 3.2 0.00 0.00 0.00 88 1019.3
20260901030722 11 285 1.6 3.2 0.00 0.00 0.00 87 1019.3
20260901030222 11 285 3.2 3.2 0.00 0.00 0.00 87 1019.3
20260901025721 11 285 1.6 3.2 0.00 0.00 0.00 86 1019.2
20260901025525 11 285 1.6 3.2 0.00 0.00 0.00 86 1019.1
20260901024724 11 285 0.0 0.0 0.00 0.00 0.00 86 1019.2
20260901024528 11 285 0.0 4.8 0.00 0.00 0.00 85 1019.2
20260901023722 11 285 1.6 4.8 0.00 0.00 0.00 85 1019.2
20260901023521 11 285 1.6 4.8 0.00 0.00 0.00 85 1019.3
20260901022722 12 285 3.2 3.2 0.00 0.00 0.00 84 1019.2
20260901022222 12 285 1.6 3.2 0.00 0.00 0.00 84 1019.3
20260901021722 12 285 1.6 3.2 0.00 0.00 0.00 84 1019.3
20260901021222 12 285 1.6 3.2 0.00 0.00 0.00 84 1019.3
20260901021048 12 285 0.0 3.2 0.00 0.00 0.00 84 1019.3
20260901020222 12 285 0.0 3.2 0.00 0.00 0.00 84 1019.3
20260901015724 12 285 1.6 3.2 0.00 0.00 0.00 84 1019.3
20260901015222 12 285 0.0 4.8 0.00 0.00 0.00 84 1019.3
20260901014722 12 285 0.0 8.0 0.00 0.00 0.00 84 1019.4
20260901014223 12 283 1.6 8.0 0.00 0.00 0.00 84 1019.3
20260901013722 12 293 3.2 4.8 0.00 0.00 0.00 83 1019.3
20260901013223 12 293 1.6 4.8 0.00 0.00 0.00 83 1019.4
20260901013053 12 292 1.6 6.4 0.00 0.00 0.00 83 1019.3
20260901012222 12 293 1.6 6.4 0.00 0.00 0.00 83 1019.3
20260901011722 13 289 1.6 4.8 0.00 0.00 0.00 83 1019.2
20260901011650 13 289 0.0 6.4 0.00 0.00 0.00 83 1019.2
20260901011643 13 289 0.0 3.2 0.00 0.00 0.00 83 1019.2
20260901010222 13 289 1.6 6.4 0.00 0.00 0.00 83 1019.2
20260901005724 13 290 3.2 9.7 0.00 0.00 0.00 83 1019.0
20260901005225 13 266 3.2 9.7 0.00 0.03 0.00 83 1019.2
20260901004726 13 288 1.6 6.4 0.00 0.03 0.00 83 1019.2
20260901004226 13 302 1.6 6.4 0.00 0.03 0.00 83 1019.1
20260901004045 13 299 1.6 6.4 0.00 0.03 0.00 83 1019.1
20260901003222 13 299 3.2 6.4 0.00 0.03 0.00 83 1019.0
20260901002722 13 285 1.6 6.4 0.00 0.03 0.00 82 1019.1
20260901002353 13 272 1.6 6.4 0.00 0.03 0.00 82 1019.0
20260901002318 13 271 3.2 6.4 0.00 0.03 0.00 82 1019.0
20260901001352 13 295 1.6 6.4 0.00 0.03 0.00 81 1019.0
20260901001320 13 295 1.6 6.4 0.00 0.03 0.00 81 1019.1
20260901000221 13 296 1.6 4.8 0.00 0.03 0.00 81 1018.9
20260831235722 13 296 0.0 6.4 0.00 0.03 0.00 81 1019.0
20260831235522 13 299 3.2 9.7 0.00 0.03 0.00 81 1019.0
20260831234721 14 305 4.8 9.7 0.00 0.03 0.00 81 1019.0
20260831234219 14 310 3.2 11.3 0.00 0.03 0.00 81 1018.9
20260831233721 14 314 4.8 11.3 0.00 0.03 0.00 81 1018.8
20260831233220 14 286 3.2 8.0 0.00 0.03 0.00 80 1018.8
20260831232721 14 288 4.8 8.0 0.00 0.03 0.00 80 1018.8
20260831232219 14 285 3.2 14.5 0.00 0.03 0.00 80 1018.6
20260831232044 14 296 8.0 14.5 0.00 0.03 0.00 80 1018.8
20260831231213 14 309 6.4 11.3 0.00 0.03 0.00 80 1018.8
20260831230716 14 282 3.2 11.3 0.00 0.03 0.00 80 1018.8
20260831230520 14 296 3.2 6.4 0.00 0.03 0.00 80 1018.7
20260831225715 14 274 3.2 6.4 0.00 0.03 0.03 80 1018.7
20260831225208 14 289 3.2 8.0 0.00 0.03 0.03 80 1018.7
20260831225001 14 282 6.4 8.0 0.00 0.03 0.03 79 1018.7
20260831224207 14 337 3.2 9.7 0.00 0.03 0.03 79 1018.7
20260831223956 14 292 3.2 9.7 0.00 0.03 0.03 79 1018.7
20260831223210 14 299 3.2 8.0 0.00 0.03 0.03 79 1018.7
20260831222710 14 293 4.8 9.7 0.00 0.03 0.03 79 1018.6
20260831222206 15 266 4.8 9.7 0.00 0.03 0.03 78 1018.5
20260831221706 15 298 3.2 8.0 0.00 0.03 0.03 78 1018.5
20260831221203 15 298 3.2 9.7 0.00 0.03 0.03 77 1018.5
20260831220704 15 292 3.2 9.7 0.00 0.03 0.03 77 1018.5
20260831220204 15 292 1.6 11.3 0.00 0.03 0.03 77 1018.4
20260831215704 15 296 6.4 11.3 0.00 0.03 0.03 77 1018.4
20260831215204 15 274 1.6 9.7 0.00 0.03 0.03 76 1018.4
20260831214707 15 295 4.8 11.3 0.00 0.05 0.03 76 1018.4
20260831214204 15 337 4.8 11.3 0.00 0.05 0.03 76 1018.3
20260831213704 15 281 4.8 11.3 0.00 0.10 0.03 76 1018.4
20260831213206 15 268 3.2 11.3 0.00 0.15 0.03 76 1018.3
20260831212702 15 252 6.4 11.3 0.00 0.15 0.03 75 1018.2
20260831212204 15 299 1.6 16.1 0.00 0.18 0.03 75 1018.1
20260831211956 15 313 4.8 16.1 0.00 0.18 0.03 75 1018.1
20260831211201 16 285 6.4 11.3 0.00 0.33 0.03 75 1018.0
20260831210709 16 305 6.4 11.3 0.00 0.43 0.03 75 1018.1
20260831210206 16 293 6.4 11.3 0.00 0.51 0.03 75 1018.1
20260831205951 16 282 3.2 11.3 0.00 0.51 0.03 75 1018.1
20260831205203 16 319 4.8 11.3 0.00 0.51 0.03 75 1017.9
20260831204701 16 309 3.2 17.7 0.00 0.51 0.03 74 1017.9
20260831204612 16 296 8.0 17.7 0.00 0.56 0.03 74 1017.8
20260831204603 16 295 4.8 16.1 0.00 0.58 0.03 74 1017.8
20260831203629 16 282 4.8 16.1 0.00 0.58 0.03 73 1017.8
20260831202159 16 265 4.8 19.3 0.00 0.58 0.03 73 1017.7
20260831201659 16 288 8.0 19.3 0.00 0.58 0.03 72 1017.6
20260831201200 16 295 3.2 14.5 0.00 0.58 0.03 72 1017.4
20260831200658 16 282 4.8 22.5 0.00 0.58 0.03 72 1017.4
20260831200200 16 295 3.2 22.5 0.00 0.58 0.03 71 1017.3
20260831195659 16 281 8.0 17.7 0.00 0.58 0.03 71 1017.3
20260831195159 17 234 8.0 17.7 0.00 0.58 0.03 71 1017.2
20260831194700 17 282 4.8 11.3 0.00 0.58 0.03 71 1017.1
20260831194158 17 310 4.8 11.3 0.00 0.58 0.03 71 1017.0
20260831193700 17 283 4.8 11.3 0.00 0.58 0.03 71 1016.9
20260831193448 17 298 4.8 9.7 0.00 0.58 0.03 71 1016.8
20260831192659 17 310 3.2 14.5 0.00 0.58 0.03 71 1016.8
20260831192157 17 276 3.2 14.5 0.00 0.58 0.03 70 1016.7
20260831191656 17 303 4.8 14.5 0.00 0.58 0.03 70 1016.7
20260831191157 17 289 4.8 20.9 0.00 0.58 0.03 69 1016.6
20260831190942 17 295 6.4 20.9 0.00 0.58 0.03 69 1016.7
20260831190155 17 295 4.8 19.3 0.00 0.58 0.03 69 1016.6
20260831185656 18 343 6.4 22.5 0.00 0.58 0.03 69 1016.4
20260831185155 18 299 4.8 22.5 0.00 0.58 0.03 69 1016.4
20260831184940 18 290 4.8 14.5 0.00 0.58 0.03 69 1016.4
20260831184157 18 292 4.8 14.5 0.00 0.58 0.03 69 1016.2
20260831183654 18 281 6.4 19.3 0.00 0.58 0.03 68 1016.2
20260831183157 18 300 4.8 19.3 0.00 0.58 0.03 68 1016.1
20260831182653 18 279 9.7 20.9 0.00 0.58 0.03 68 1016.0
20260831182154 18 310 9.7 20.9 0.00 0.58 0.03 68 1015.9
20260831181653 19 262 9.7 20.9 0.00 0.58 0.03 68 1015.9
20260831181150 19 314 6.4 16.1 0.00 0.58 0.03 69 1015.8
20260831180651 19 261 9.7 25.7 0.00 0.58 0.03 71 1015.6
20260831180150 19 295 9.7 25.7 0.00 0.58 0.03 75 1015.6
20260831175933 19 296 3.2 11.3 0.00 0.58 0.03 76 1015.4
20260831175148 19 244 3.2 9.7 0.00 0.58 0.03 75 1015.4
20260831174646 19 285 4.8 9.7 0.00 0.58 0.03 75 1015.4
20260831174146 19 278 3.2 14.5 0.00 0.58 0.03 74 1015.3
20260831173647 19 245 6.4 14.5 0.00 0.58 0.03 74 1015.3
20260831173146 19 252 3.2 11.3 0.00 0.58 0.03 72 1015.3
20260831172934 20 262 8.0 11.3 0.00 0.58 0.03 71 1015.2
20260831172145 20 243 4.8 14.5 0.00 0.58 0.03 69 1015.2
20260831171644 20 295 6.4 16.1 0.00 0.58 0.03 68 1015.0
20260831171143 20 337 6.4 20.9 0.00 0.58 0.03 68 1014.8
20260831170642 20 321 11.3 20.9 0.00 0.58 0.03 68 1014.9
20260831170425 20 319 11.3 19.3 0.00 0.58 0.03 67 1014.6
20260831165640 21 313 9.7 20.9 0.00 0.58 0.03 66 1014.6
20260831165142 21 289 11.3 20.9 0.00 0.58 0.03 66 1014.5
20260831164923 21 290 8.0 17.7 0.00 0.58 0.03 65 1014.4
20260831164140 21 266 8.0 22.5 0.00 0.58 0.03 66 1014.3
20260831163640 21 316 11.3 22.5 0.00 0.58 0.03 65 1014.2
20260831163140 21 235 4.8 27.4 0.00 0.58 0.03 64 1014.1
20260831162922 21 278 6.4 27.4 0.00 0.58 0.03 63 1014.1
20260831162139 21 281 6.4 19.3 0.00 0.58 0.03 63 1014.1
20260831161639 22 282 9.7 19.3 0.00 0.58 0.03 63 1014.1
20260831161137 22 245 6.4 14.5 0.00 0.58 0.03 63 1014.1
20260831160639 22 282 4.8 16.1 0.00 0.58 0.03 62 1014.0
20260831160150 22 348 9.7 19.3 0.00 0.58 0.03 61 1014.1
20260831155634 23 300 8.0 19.3 0.00 0.58 0.03 61 1013.9
20260831155137 23 305 8.0 11.3 0.00 0.58 0.03 61 1014.0
20260831154735 23 265 8.0 16.1 0.00 0.58 0.03 64 1013.9
20260831154718 23 275 6.4 14.5 0.00 0.58 0.03 64 1013.9
20260831153633 22 271 9.7 16.1 0.00 0.58 0.03 70 1013.9
20260831153434 21 274 8.0 11.3 0.00 0.58 0.03 70 1013.8
20260831152635 20 278 6.4 11.3 0.00 0.58 0.03 70 1013.9
20260831152417 20 282 3.2 16.1 0.00 0.58 0.03 68 1013.9
20260831151634 20 292 11.3 16.1 0.00 0.58 0.03 70 1013.8
20260831151134 20 275 4.8 16.1 0.00 0.58 0.03 70 1013.9
20260831150630 21 299 11.3 19.3 0.00 0.58 0.03 70 1013.8
20260831150426 21 317 11.3 19.3 0.00 0.58 0.03 71 1013.8
20260831145645 21 323 6.4 16.1 0.00 0.58 0.03 71 1013.8
20260831145313 21 299 9.7 16.1 0.00 0.58 0.03 71 1013.6
20260831145249 21 245 6.4 16.1 0.00 0.58 0.03 70 1013.7
20260831144129 21 293 11.3 16.1 0.00 0.58 0.03 71 1013.6
20260831143630 20 0 9.7 16.1 0.00 0.58 0.03 73 1013.5